Home > Time Zones > World Clock > Weather > Iran > Ahvaz > Past weeks

Flag for Iran Weather past 2 weeks in Ahvaz, Iran

Now
104 °F

Sunny.


Feels Like: 103 °F
Forecast: 77 / 105 °F
Wind: 7 mph from West

Location: Ahwaz

Current Time: Sep 30, 2014 at 2:00:10 PM

Latest Report: Sep 30, 2014 at 12:55 PM


Visibility: 10 mi

Pressure: 29.83 "Hg

Humidity: 20%

Dew point: 55 °F

Location of AhvazLocation

Historic Weather in Ahvaz — Graph

°F

Ahvaz temperature yesterday

Maximum temperature yesterday: 104 °F (at 1:30 PM)
Minimum temperature yesterday: 70 °F (at 6:30 AM)
Average temperature yesterday: 89 °F

Past Weeks' High & Low Weather Summary

 TemperatureHumidityPressure
High111 °F (Sep 16, 5:00 PM)61% (Sep 28, 6:30 AM)29.89 "Hg (Sep 28, 6:30 AM)
Low70 °F (Sep 21, 7:30 AM)10% (Sep 20, 4:00 PM)29.53 "Hg (Sep 15, 6:30 PM)
Average92 °F29%29.70 "Hg
* Reported Sep 15 1:30 PM — Sep 30 12:55 PM, Ahvaz, Weather by CustomWeather, © 2014

Note: Actual official high and low records may vary slightly from our data, if they occured in-between our weather recording intervals... More about our weather records

Advertising

Ahvaz weather history for previous 24 hours

 ConditionsComfort  
Time TempWeatherWind HumidityBarometerVisibility
12:55 PM
Sep 30
104 °FSunny.7 mph20%29.83 "Hg10 mi
12:30 PM102 °FSunny.No wind23%29.83 "Hg10 mi
11:55 AM102 °FSunny.5 mph20%29.83 "Hg4 mi
11:30 AM100 °FSunny.No wind22%29.83 "Hg4 mi
10:55 AM99 °FSunny.No wind22%29.83 "Hg4 mi
10:30 AM95 °FSunny.5 mph25%29.83 "Hg4 mi
9:55 AM93 °FSunny.7 mph28%29.86 "Hg4 mi
9:30 AM88 °FSunny.5 mph33%29.86 "Hg3 mi
8:55 AM86 °FSunny.5 mph31%29.86 "Hg2 mi
8:30 AM82 °FSunny.No wind32%29.83 "Hg1 mi
7:55 AM79 °FSunny.No wind39%29.83 "Hg1 mi
7:30 AM73 °FSunny.No wind50%29.83 "Hg1 mi
7:00 AM72 °FSunny.No wind53%29.80 "Hg1 mi
6:30 AM72 °FClear.No wind53%29.80 "Hg1 mi
5:30 AM73 °FClear.No wind53%29.80 "Hg4 mi
4:30 AM73 °FClear.No wind53%29.77 "Hg5 mi
3:30 AM75 °FClear.No wind47%29.77 "Hg10 mi
2:30 AM77 °FClear.No wind51%29.77 "Hg10 mi
1:30 AM79 °FClear.No wind48%29.77 "Hg10 mi
12:30 AM79 °FClear.No wind45%29.77 "Hg10 mi
11:30 PM
Sep 29
81 °FClear.No wind42%29.80 "Hg10 mi
11:00 PM81 °FClear.2 mph42%29.80 "Hg10 mi
10:30 PM82 °FClear.No wind40%29.80 "Hg10 mi
10:00 PM82 °FClear.No wind40%29.80 "Hg10 mi
9:30 PM82 °FClear.No wind40%29.80 "Hg10 mi
9:00 PM84 °FClear.No wind43%29.80 "Hg10 mi
8:30 PM84 °FClear.No wind43%29.80 "Hg10 mi
8:00 PM84 °FClear.No wind45%29.80 "Hg10 mi
7:30 PM86 °FClear.5 mph43%29.80 "Hg10 mi
7:00 PM90 °FClear.5 mph43%29.80 "Hg10 mi
6:30 PM91 °FSunny.5 mph41%29.80 "Hg10 mi
5:30 PM99 °FSunny.5 mph24%29.80 "Hg10 mi
5:00 PM102 °FSunny.7 mph18%29.80 "Hg10 mi
4:30 PM102 °FSunny.5 mph18%29.80 "Hg10 mi
3:30 PM102 °FSunny.7 mph18%29.80 "Hg10 mi
3:00 PM104 °FSunny.7 mph17%29.80 "Hg10 mi
2:30 PM102 °FSunny.5 mph18%29.80 "Hg10 mi
2:00 PM104 °FSunny.No wind17%29.83 "Hg10 mi
Weather by CustomWeather, © 2014

See weather overviewHow to use our weather pages